User: anonymous
Location: Hepcat Sky Observatory
(29.9800°N, 95.6500°W)
Time: 09:45:57
(UTC-05:00)
Language:

Cosmos 2151 Rocket - Orbit

View from above orbital plane
View from above orbital plane
View from above satellite
View from above satellite

Ground track
Ground track

The orbit data is extracted from the following two-line orbital elements,

1 21423U 91042B   14209.46153183  .00000152  00000-0  17345-4 0  7568
2 21423 082.4918 226.8119 0019402 104.8732 011.4565 14.79215026246636
Epoch (UTC): 28 July 2014 11:04:36
Eccentricity: 0.0019402
inclination: 82.4918°
perigee height: 618 km
apogee height: 645 km
right ascension of ascending node: 226.8119°
argument of perigee: 104.8732°
revolutions per day: 14.79215026
mean anomaly at epoch: 11.4565°
orbit number at epoch: 24663

The dashed part of the orbit path shows where the satellite is in the earth's shadow,  

DLR